This demonstration page uses our WeatherBlox Daily Observations layout. Learn more.

Left ArrowRight Arrow

Hourly Observations for September 23, 2017

Temp ( °F °C ) Dew Point ( °F °C ) Humidity (%) Winds ( mph kmh ) Pressure ( in mb ) Visibility ( mi km ) Precip ( " mm )
12:15 am 00:15 Clear 68 20 66 19 94 94 Calm 30.06 1018 10 16 0.00 0.00
12:35 am 00:35 Clear 63 17 63 17 100 100 Calm 30.06 1018 10 16 0.00 0.00
12:55 am 00:55 Clear 63 17 63 17 100 100 Calm 30.06 1018 10 16 0.00 0.00
1:15 am 01:15 Clear 63 17 63 17 100 100 Calm 30.06 1018 10 16 0.00 0.00
1:35 am 01:35 Clear 63 17 63 17 100 100 Calm 30.06 1018 10 16 0.00 0.00
1:55 am 01:55 Clear 63 17 63 17 100 100 Calm 30.06 1018 10 16 0.00 0.00
2:15 am 02:15 Clear 63 17 63 17 100 100 Calm 30.06 1018 10 16 0.00 0.00
2:35 am 02:35 Clear 61 16 61 16 100 100 Calm 30.06 1018 10 16 0.00 0.00
2:55 am 02:55 Clear 63 17 63 17 100 100 Calm 30.06 1018 10 16 0.00 0.00
3:15 am 03:15 Clear 63 17 63 17 100 100 NNW 3 6 30.06 1018 10 16 0.00 0.00
3:35 am 03:35 Clear 63 17 63 17 100 100 N 6 9 30.06 1018 10 16 0.00 0.00
3:55 am 03:55 Clear 64 18 64 18 100 100 N 3 6 30.06 1018 10 16 0.00 0.00
4:15 am 04:15 Clear 61 16 61 16 100 100 N 3 6 30.06 1018 10 16 0.00 0.00
4:35 am 04:35 Clear 61 16 61 16 100 100 Calm 30.06 1018 10 16 0.00 0.00
4:55 am 04:55 Clear 59 15 59 15 100 100 N 5 7 30.06 1018 10 16 0.00 0.00
5:15 am 05:15 Clear 63 17 63 17 100 100 NNE 6 9 30.06 1018 10 16 0.00 0.00
5:35 am 05:35 Clear 63 17 63 17 100 100 NNE 3 6 30.09 1019 10 16 0.00 0.00
5:55 am 05:55 Clear 61 16 61 16 100 100 Calm 30.09 1019 10 16 0.00 0.00
6:15 am 06:15 Clear 59 15 59 15 100 100 Calm 30.09 1019 10 16 0.00 0.00
6:35 am 06:35 Clear 59 15 59 15 100 100 Calm 30.09 1019 10 16 0.00 0.00
6:55 am 06:55 Clear 57 14 57 14 100 100 undefined N/A 30.09 1019 10 16 0.00 0.00
7:15 am 07:15 Sunny 57 14 57 14 100 100 Calm 30.09 1019 10 16 0.00 0.00
7:35 am 07:35 Sunny 59 15 59 15 100 100 Calm 30.12 1020 10 16 0.00 0.00
7:55 am 07:55 Sunny 61 16 61 16 100 100 Calm 30.12 1020 7 11 0.00 0.00
8:15 am 08:15 Sunny 63 17 63 17 100 100 N 5 7 30.12 1020 10 16 0.00 0.00
8:35 am 08:35 Sunny 64 18 63 17 94 94 NNW 3 6 30.12 1020 10 16 0.00 0.00
8:55 am 08:55 Sunny 66 19 63 17 88 88 N 3 6 30.12 1020 10 16 0.00 0.00
9:15 am 09:15 Sunny 68 20 63 17 83 83 Calm 30.12 1020 10 16 0.00 0.00
9:35 am 09:35 Sunny 72 22 63 17 73 73 Calm 30.12 1020 10 16 0.00 0.00
9:55 am 09:55 Sunny 73 23 63 17 69 69 N 5 7 30.12 1020 10 16 0.00 0.00
10:15 am 10:15 Sunny 75 24 59 15 57 57 N 7 11 30.12 1020 10 16 0.00 0.00
10:35 am 10:35 Sunny 77 25 59 15 54 54 NNE 6 9 30.12 1020 10 16 0.00 0.00
10:55 am 10:55 Sunny 79 26 59 15 51 51 N 6 9 30.12 1020 10 16 0.00 0.00
11:15 am 11:15 Sunny 79 26 61 16 54 54 NE 6 9 30.12 1020 10 16 0.00 0.00
11:35 am 11:35 Sunny 81 27 61 16 51 51 N 3 6 30.12 1020 10 16 0.00 0.00
11:55 am 11:55 Sunny 79 26 61 16 54 54 N 6 9 30.12 1020 10 16 0.00 0.00
12:15 pm 12:15 Sunny 81 27 63 17 54 54 Calm 30.12 1020 10 16 0.00 0.00
12:35 pm 12:35 Sunny 81 27 63 17 54 54 N 8 13 30.12 1020 10 16 0.00 0.00
12:55 pm 12:55 Sunny 81 27 63 17 54 54 Calm 30.12 1020 10 16 0.00 0.00
1:15 pm 13:15 Sunny 82 28 63 17 51 51 NNE 7 11 30.12 1020 10 16 0.00 0.00
1:35 pm 13:35 Sunny 82 28 63 17 51 51 NNE 3 6 30.12 1020 10 16 0.00 0.00
1:55 pm 13:55 Sunny 82 28 63 17 51 51 NNE 6 9 30.09 1019 10 16 0.00 0.00
2:15 pm 14:15 Sunny 84 29 63 17 48 48 N 8 13 30.09 1019 10 16 0.00 0.00
2:35 pm 14:35 Sunny 84 29 63 17 48 48 N 13 20 30.09 1019 10 16 0.00 0.00
2:55 pm 14:55 Sunny 84 29 63 17 48 48 N 7 11 30.09 1019 10 16 0.00 0.00
3:15 pm 15:15 Sunny 84 29 64 18 51 51 NNW 5 7 30.09 1019 10 16 0.00 0.00
3:35 pm 15:35 Sunny 84 29 64 18 51 51 NNW 3 6 30.09 1019 10 16 0.00 0.00
3:55 pm 15:55 Sunny 86 30 64 18 49 49 N 6 9 30.09 1019 10 16 0.00 0.00
4:15 pm 16:15 Sunny 86 30 64 18 49 49 N 6 9 30.09 1019 10 16 0.00 0.00
4:35 pm 16:35 Sunny 86 30 64 18 49 49 undefined N/A 30.09 1019 10 16 0.00 0.00
4:55 pm 16:55 Sunny 86 30 64 18 49 49 W 3 6 30.06 1018 10 16 0.00 0.00
5:15 pm 17:15 Sunny 86 30 64 18 49 49 WNW 3 6 30.06 1018 10 16 0.00 0.00
5:35 pm 17:35 Sunny 86 30 64 18 49 49 W 3 6 30.06 1018 10 16 0.00 0.00
5:55 pm 17:55 Sunny 84 29 64 18 51 51 W 3 6 30.09 1019 10 16 0.00 0.00
6:15 pm 18:15 Sunny 84 29 64 18 51 51 Calm 30.09 1019 10 16 0.00 0.00
6:35 pm 18:35 Sunny 82 28 64 18 55 55 Calm 30.09 1019 10 16 0.00 0.00
6:55 pm 18:55 Sunny 81 27 66 19 62 62 W 3 6 30.09 1019 10 16 0.00 0.00
7:15 pm 19:15 Clear 77 25 66 19 69 69 W 3 6 30.09 1019 10 16 0.00 0.00
7:35 pm 19:35 Clear 75 24 68 20 78 78 W 3 6 30.09 1019 10 16 0.00 0.00
7:55 pm 19:55 Clear 73 23 68 20 83 83 Calm 30.09 1019 10 16 0.00 0.00
8:15 pm 20:15 Clear 73 23 68 20 83 83 WNW 3 6 30.09 1019 10 16 0.00 0.00
8:35 pm 20:35 Clear 72 22 68 20 88 88 WNW 3 6 30.09 1019 10 16 0.00 0.00
8:55 pm 20:55 Clear 70 21 68 20 94 94 Calm 30.09 1019 10 16 0.00 0.00
9:15 pm 21:15 Clear 72 22 66 19 83 83 NNW 5 7 30.09 1019 10 16 0.00 0.00
9:35 pm 21:35 Clear 70 21 66 19 88 88 NW 3 6 30.09 1019 10 16 0.00 0.00
9:55 pm 21:55 Clear 68 20 66 19 94 94 Calm 30.09 1019 10 16 0.00 0.00
10:15 pm 22:15 Clear 68 20 66 19 94 94 N 3 6 30.09 1019 10 16 0.00 0.00
10:35 pm 22:35 Clear 66 19 64 18 94 94 Calm 30.09 1019 10 16 0.00 0.00
10:55 pm 22:55 Clear 66 19 64 18 94 94 Calm 30.09 1019 10 16 0.00 0.00
11:15 pm 23:15 Clear 64 18 64 18 100 100 Calm 30.09 1019 10 16 0.00 0.00
11:35 pm 23:35 Clear 64 18 64 18 100 100 Calm 30.09 1019 10 16 0.00 0.00
11:55 pm 23:55 Clear 64 18 64 18 100 100 Calm 30.09 1019 10 16 0.00 0.00

Powered by AerisWeather